Regional Weather Roundup
Issued by NWS

Home | Current Version | Previous Version | Text Only | Print | Product List | Glossary Off
Versions: 1 2 3 4 5 6 7 8 9 10 11 12 13 14 15 16 17 18 19 20 21 22 23 24 25 26 27

000
ASUS45 KSLC 171010
RWRUT

UTAH REGIONAL WEATHER ROUNDUP
NATIONAL WEATHER SERVICE SALT LAKE CITY UT
300 AM MST TUE JAN 17 2017

UTZ001>011-023>025-171100-

NORTHERN UTAH

CITY           SKY/WX    TMP DP  RH WIND       PRES   REMARKS
BRIGHAM CITY     N/A      8   4  81 CALM      30.31S
HILL AFB       NOT AVBL
LOGAN          PTCLDY    -1  -4  87 CALM      30.32R FOG
OGDEN          MOCLDY    13   7  77 S7        30.27S WCI   3
SALT LAKE CITY PTCLDY    21  16  81 SE3       30.28S
TOOELE VALLEY  PTCLDY    18  14  86 S6        30.28S WCI   9
WENDOVER       CLOUDY    25  18  74 NE3       30.28S
HEBER CITY       N/A     -9 -15  77 CALM      30.24F HAZE
WEST JORDAN    PTCLDY    19  19 100 CALM      30.27S

$$

UTZ011>015-024>027-171100-

CENTRAL/NORTHEAST UTAH

CITY           SKY/WX    TMP DP  RH WIND       PRES   REMARKS
PROVO AIRPORT  CLOUDY    22  17  81 SE10      30.28F WCI  11
MOAB/CANYONLAN CLEAR     30  22  72 SE3       30.15R
DELTA          CLEAR     18  16  93 N3        30.25F
PRICE          PTCLDY    11   3  70 NE8       30.13S WCI  -1
RICHFIELD      CLOUDY    23  21  93 CALM      30.27R
ROOSEVELT      CLOUDY    14  10  85 CALM      30.27S
VERNAL         CLOUDY    18  16  92 CALM      30.24S

$$

UTZ013>016-019>022-027-171100-

SOUTHERN UTAH

CITY           SKY/WX    TMP DP  RH WIND       PRES   REMARKS
BRYCE CANYON   MOCLDY     9   5  84 NW8       30.13F WCI  -3
CEDAR CITY     CLEAR     18  13  80 CALM      30.18S
MILFORD        CLEAR     18  15  88 NE5       30.24R WCI  11
ST GEORGE      MOSUNNY   34  23  64 CALM      30.19S
HANKSVILLE     CLEAR     28  27  93 MISG      30.19S
KANAB          CLEAR     30  19  64 NW13      30.16S WCI  20
BLANDING       CLOUDY    33  26  76 CALM      30.18S

$$

REGIONAL REPORTS     COLORADO/ARIZONA

CITY           SKY/WX    TMP DP  RH WIND       PRES   REMARKS
CRAIG, CO      CLOUDY    15  12  88 SW5       30.21R WCI   8
GRAND JUNCTION CLOUDY    25  21  85 CALM      30.16S
RIFLE, CO      CLOUDY    19  15  84 CALM      30.18S
MONTROSE, CO   CLOUDY    32  26  78 SE5       30.16S WCI  27
CORTEZ, CO     CLOUDY    35  33  92 CALM      30.10S
COLORADO CITY    N/A     23  21  93 SE5       30.15S WCI  17
PAGE, AZ       CLEAR     36  27  69 S3        30.11R
GRAND CANYON   CLEAR     21  20  96 CALM      30.10R
KINGMAN, AZ    CLEAR     33  21  61 E8        30.09S WCI  26
FLAGSTAFF, AZ  PTCLDY    27  22  81 SE3       30.07S

$$

REGIONAL REPORTS    NEVADA/IDAHO/WYOMING

CITY           SKY/WX    TMP DP  RH WIND       PRES   REMARKS
LAS VEGAS, NV  CLEAR     40  23  50 SW5       30.13R
ELY, NY        FOG        5   2  87 S13       30.20F VSB 3/4 WCI -12
ELKO, NV       CLOUDY    17  13  84 CALM      30.26F
POCATELLO, ID  CLOUDY    -1  -4  87 N3        30.30S
BURLEY, ID     CLEAR      7   2  80 NE8       30.27S WCI  -6
FORT BRIDGER,    N/A      2  -1  89 W7        30.16S WCI -11
EVANSTON, WY   CLOUDY     8   1  73 S3        30.14F
ROCK SPRINGS,  CLOUDY    -9 -15  75 W7        30.15F HAZE    WCI -24

$$




USA.gov is the U.S. government's official web portal to all federal, state and local government web resources and services.